Stations météo

réclame
Mon MeteoGroup
Cagliari/Elmas, Italie (16560): Température de l'air & dewpoint: 15.10.2017 05:00:00 - 21.10.2017 05:00:00 (CEST)Cagliari/Elmas, Italie (16560): Vitesse du vent: 15.10.2017 05:00:00 - 21.10.2017 05:00:00 (CEST)Cagliari/Elmas, Italie (16560): Direction du vent: 15.10.2017 05:00:00 - 21.10.2017 05:00:00 (CEST)Cagliari/Elmas, Italie (16560): reduced air pressure: 15.10.2017 05:00:00 - 21.10.2017 05:00:00 (CEST)Cagliari/Elmas, Italie (16560): visibility: 15.10.2017 05:00:00 - 21.10.2017 05:00:00 (CEST)Cagliari/Elmas, Italie (16560): Quantités de précipitations: 15.10.2017 05:00:00 - 21.10.2017 05:00:00 (CEST)
Date & Time tt [°C] td [°C] ff [km/h] ff [knt] dd ppp [hPa] vv [km] rr [mm]
21.10.2017 05:00:00 - - - - - - - -
21.10.2017 04:00:00 15,0 14,0 8 4 NNW - 10 -
21.10.2017 03:00:00 16,0 15,0 4 2 NNW - 10 -
21.10.2017 02:00:00 16,8 15,4 5 3 WNW 1020,5 10 -
21.10.2017 01:00:00 18,0 16,0 5 3 NW - 10 -
21.10.2017 00:00:00 18,0 17,0 8 4 NNW - 10 -
20.10.2017 23:00:00 19,7 17,9 2 1 - 1020,1 10 0,0
20.10.2017 22:00:00 20,0 18,0 4 2 SSE - 10 -
20.10.2017 21:00:00 22,0 18,0 11 6 ESE - 10 -
20.10.2017 20:00:00 21,9 18,9 21 11 SE 1018,8 10 -
20.10.2017 19:00:00 23,0 19,0 21 11 ESE - 10 -
20.10.2017 18:00:00 24,0 18,0 13 7 SE - 10 -
20.10.2017 17:00:00 24,5 16,7 22 12 E 1016,9 10 0,0
20.10.2017 16:00:00 25,0 17,0 24 13 E - 10 -
20.10.2017 15:00:00 25,0 19,0 15 8 SSE - 10 -
20.10.2017 14:00:00 24,3 19,5 18 10 SSE 1016,0 10 -
20.10.2017 13:00:00 25,0 18,0 15 8 SE - 10 -
20.10.2017 12:00:00 26,0 18,0 11 6 ESE - 10 -
20.10.2017 11:00:00 24,6 18,3 11 6 E 1016,0 10 0,0
20.10.2017 10:00:00 24,0 19,0 16 9 ESE - 10 -
20.10.2017 09:00:00 22,0 18,0 13 7 E - 10 -
20.10.2017 08:00:00 21,0 16,8 9 5 ENE 1014,2 10 -
20.10.2017 07:00:00 22,0 18,0 13 7 E - 10 -
20.10.2017 06:00:00 22,0 19,0 18 10 E - 10 -
20.10.2017 05:00:00 21,9 18,4 21 11 ESE 1013,4 10 0,0
20.10.2017 04:00:00 22,0 18,0 26 14 ESE - 10 -
20.10.2017 03:00:00 - - - - - - - -
20.10.2017 02:00:00 21,8 18,6 26 14 ESE 1013,7 10 -
20.10.2017 01:00:00 22,0 19,0 26 14 ESE - 10 -
20.10.2017 00:00:00 22,0 19,0 29 16 ESE - 10 -
19.10.2017 23:00:00 22,1 18,4 29 16 ESE 1013,9 10 0,0
19.10.2017 22:00:00 22,0 17,0 24 13 ESE - 10 -
19.10.2017 21:00:00 22,0 17,0 24 13 ESE - 10 -
19.10.2017 20:00:00 21,9 16,6 22 12 SE 1013,5 10 -
19.10.2017 19:00:00 22,0 17,0 16 9 SSE - 10 -
19.10.2017 18:00:00 23,0 18,0 21 11 SE - 10 -
19.10.2017 17:00:00 24,2 17,0 24 13 SE 1013,2 10 0,0
19.10.2017 16:00:00 24,0 18,0 28 15 SE - 10 -
19.10.2017 15:00:00 24,0 19,0 26 14 SSE - 10 -
19.10.2017 14:00:00 23,1 18,7 28 15 SSE 1014,7 10 -
19.10.2017 13:00:00 24,0 19,0 28 15 SE - 10 -
19.10.2017 12:00:00 25,0 18,0 26 14 SE - 10 -
19.10.2017 11:00:00 24,1 17,3 15 8 SE 1015,6 10 0,0
19.10.2017 10:00:00 22,0 17,0 5 3 ESE - 10 -
19.10.2017 09:00:00 11,0 7,0 11 6 E - 10 -
19.10.2017 08:00:00 17,9 15,0 8 4 E 1015,5 10 -
19.10.2017 07:00:00 19,0 16,0 11 6 E - 10 -
19.10.2017 06:00:00 18,0 16,0 11 6 ESE - 10 -
19.10.2017 05:00:00 18,8 15,8 13 7 E 1015,8 10 0,0
19.10.2017 04:00:00 18,0 15,0 9 5 E - 10 -
19.10.2017 03:00:00 18,0 15,0 9 5 ESE - 10 -
19.10.2017 02:00:00 16,8 13,8 8 4 E 1016,8 10 -
19.10.2017 01:00:00 18,0 15,0 8 4 E - 10 -
19.10.2017 00:00:00 18,0 15,0 8 4 E - 10 -
18.10.2017 23:00:00 19,3 15,1 11 6 E 1017,7 10 0,0
18.10.2017 22:00:00 20,0 17,0 11 6 SSE - 10 -
18.10.2017 21:00:00 21,0 17,0 16 9 SSE - 10 -
18.10.2017 20:00:00 21,1 17,7 15 8 SSE 1017,2 10 -
18.10.2017 19:00:00 22,0 18,0 18 10 SSE - 10 -
18.10.2017 18:00:00 22,0 18,0 18 10 SSE - 10 -
18.10.2017 17:00:00 22,7 18,5 21 11 SSE 1017,0 10 0,0
18.10.2017 16:00:00 23,0 18,0 21 11 SSE - 10 -
18.10.2017 15:00:00 24,0 18,0 21 11 SSE - 10 -
18.10.2017 14:00:00 23,9 18,0 18 10 SE 1018,4 10 -
18.10.2017 13:00:00 24,0 18,0 13 7 SSE - 10 -
18.10.2017 12:00:00 23,0 17,0 9 5 SSE - 10 -
18.10.2017 11:00:00 19,5 15,1 5 3 WNW 1020,2 5 0,0
18.10.2017 10:00:00 15,0 14,0 4 2 - - 5 -
18.10.2017 09:00:00 13,0 13,0 8 4 NW - 4,5 -
18.10.2017 08:00:00 11,5 11,0 9 5 NNW 1020,2 0,8 -
18.10.2017 07:00:00 12,0 11,0 11 6 NNW - 9 -
18.10.2017 06:00:00 12,0 12,0 11 6 NNW - 9 -
18.10.2017 05:00:00 13,3 12,6 11 6 NW 1020,8 10 0,0
18.10.2017 04:00:00 13,0 12,0 9 5 NNW - 10 -
18.10.2017 03:00:00 14,0 13,0 5 3 NW - 10 -
18.10.2017 02:00:00 15,1 13,6 8 4 NNW 1022,1 10 -
18.10.2017 01:00:00 17,0 15,0 5 3 NW - 10 -
18.10.2017 00:00:00 19,0 17,0 8 4 E - 10 -
17.10.2017 23:00:00 20,1 17,3 9 5 SSE 1022,8 10 0,0
17.10.2017 22:00:00 20,0 17,0 8 4 S - 10 -
17.10.2017 21:00:00 20,0 17,0 9 5 S - 10 -
17.10.2017 20:00:00 20,2 16,7 13 7 SSE 1022,7 10 -
17.10.2017 19:00:00 21,0 17,0 15 8 SSE - 10 -
17.10.2017 18:00:00 22,0 17,0 21 11 SSE - 10 -
17.10.2017 17:00:00 22,6 16,9 16 9 SSE 1022,6 10 0,0
17.10.2017 16:00:00 23,0 17,0 16 9 SSE - 10 -
17.10.2017 15:00:00 23,0 17,0 15 8 SSE - 10 -
17.10.2017 14:00:00 23,7 16,5 15 8 SSE 1024,3 10 -
17.10.2017 13:00:00 23,0 16,0 13 7 SSE - 10 -
17.10.2017 12:00:00 23,0 16,0 13 7 SE - 10 -
17.10.2017 11:00:00 21,1 14,9 4 2 - 1025,9 10 0,0
17.10.2017 10:00:00 16,0 12,0 8 4 NW - 10 -
17.10.2017 09:00:00 12,0 10,0 8 4 NNW - 10 -
17.10.2017 08:00:00 10,7 9,4 9 5 NNW 1025,5 10 -
17.10.2017 07:00:00 12,0 11,0 9 5 NNW - 10 -
17.10.2017 06:00:00 12,0 11,0 8 4 NNW - 10 -
17.10.2017 05:00:00 12,3 11,2 11 6 NNW 1025,3 10 0,0
17.10.2017 04:00:00 13,0 11,0 9 5 NW - 10 -
17.10.2017 03:00:00 13,0 12,0 5 3 NNW - 10 -
17.10.2017 02:00:00 14,1 12,6 4 2 N 1026,4 10 -
17.10.2017 01:00:00 16,0 15,0 5 3 N - 10 -
17.10.2017 00:00:00 20,0 17,0 8 4 SSW - 10 -
16.10.2017 23:00:00 19,9 17,8 8 4 S 1026,8 10 0,0
16.10.2017 22:00:00 20,0 18,0 9 5 S - 10 -
16.10.2017 21:00:00 21,0 18,0 11 6 S - 10 -
16.10.2017 20:00:00 20,7 17,2 11 6 SSE 1026,7 10 -
16.10.2017 19:00:00 21,0 17,0 13 7 SSE - 10 -
16.10.2017 18:00:00 22,0 17,0 13 7 SSE - 10 -
16.10.2017 17:00:00 22,5 17,2 18 10 SSE 1026,4 10 0,0
16.10.2017 16:00:00 23,0 18,0 16 9 S - 10 -
16.10.2017 15:00:00 24,0 17,0 18 10 SSE - 10 -
16.10.2017 14:00:00 23,3 16,9 13 7 S 1027,4 10 -
16.10.2017 13:00:00 23,0 17,0 13 7 S - 10 -
16.10.2017 12:00:00 22,0 16,0 8 4 SSW - 10 -
16.10.2017 11:00:00 20,6 15,4 4 2 - 1028,5 10 0,0
16.10.2017 10:00:00 16,0 13,0 5 3 NW - 10 -
16.10.2017 09:00:00 13,0 12,0 8 4 NNW - 10 -
16.10.2017 08:00:00 11,8 10,6 11 6 NNW 1027,4 10 -
16.10.2017 07:00:00 11,0 10,0 8 4 NNW - 10 -
16.10.2017 06:00:00 12,0 10,0 8 4 NNW - 10 -
16.10.2017 05:00:00 12,6 11,2 9 5 N 1027,3 10 0,0
16.10.2017 04:00:00 13,0 12,0 9 5 NNW - 10 -
16.10.2017 03:00:00 14,0 12,0 8 4 NW - 10 -
16.10.2017 02:00:00 14,6 12,9 4 2 - 1027,8 10 -
16.10.2017 01:00:00 16,0 14,0 5 3 NE - 10 -
16.10.2017 00:00:00 17,0 15,0 4 2 - - 10 -
15.10.2017 23:00:00 19,4 16,4 9 5 SSE 1028,3 10 0,0
15.10.2017 22:00:00 20,0 16,0 5 3 S - 10 -
15.10.2017 21:00:00 20,0 17,0 9 5 S - 10 -
15.10.2017 20:00:00 20,6 16,2 13 7 SSE 1028,0 10 -
15.10.2017 19:00:00 21,0 16,0 15 8 SSE - 10 -
15.10.2017 18:00:00 22,0 16,0 15 8 SSE - 10 -
15.10.2017 17:00:00 22,8 16,3 15 8 SSE 1027,6 10 0,0
15.10.2017 16:00:00 23,0 16,0 15 8 SSE - 10 -
15.10.2017 15:00:00 24,0 14,0 13 7 SSE - 10 -
15.10.2017 14:00:00 23,8 12,8 13 7 SSE 1028,4 10 -
15.10.2017 13:00:00 23,0 14,0 11 6 S - 10 -
15.10.2017 12:00:00 22,0 14,0 5 3 - - 10 -
15.10.2017 11:00:00 20,7 14,7 5 3 WNW 1029,8 10 0,0
15.10.2017 10:00:00 17,0 14,0 9 5 NW - 10 -
15.10.2017 09:00:00 14,0 13,0 9 5 NNW - 10 -
15.10.2017 08:00:00 13,1 11,9 9 5 N 1028,8 10 -
15.10.2017 07:00:00 14,0 13,0 9 5 NW - 8 -
15.10.2017 06:00:00 14,0 12,0 8 4 NNW - 10 -
15.10.2017 05:00:00 14,8 12,8 9 5 NW 1028,2 10 0,0

tt = Température de l'air
td = dewpoint
ff = Vitesse du vent
dd = Direction du vent
ppp = reduced air pressure
vv = visibility
rr = Quantités de précipitations

stations d'obs. à proximité